Zurück zum Katalog

THORAD DELTA 1 DEB

AktivUNKNOWN
NORAD 42593·DEBRIS·🇺🇸 United States

Gestartet Nov 15, 1974 von Vandenberg Space Force Base

Loading…

Nächste Überflüge (nächste 24 Stunden)

TLE

AktuellSource: Space-Track

Epoche: Sep 13, 2026, 10:50 UTC

1 42593U 74089FJ  26256.45144316 -.00000249  00000-0 -27047-2 0  9999
2 42593 101.1896 127.7362 0365763 190.0235 346.7954 11.83946180553708

Verfolge THORAD DELTA 1 DEB in Echtzeit mit AllMySat

Download on the App Store